Weather in Rosh Pinna

Israel     32°58′10″N   35°32′58″E
temp.,
°C
wind,
m/s
gust,
m/s
humid.,
%
clouds,
%
prec.,
mm/h
press.,
hPa
HPBL,
m
15 may, sat
sat1500:00+17nw22620 0.0 101419
03:00+15nw22740 0.0 101315
06:00+14nnw11790 0.0 101311
09:00+22s22440 0.0 1013509
12:00+29s22290 0.0 10121193
15:00+30nw33290 0.0 10101448
18:00+25nw44280 0.0 1010493
21:00+18nw33422 0.0 101121
16 may, sun
sun1600:00+16nw22523 0.0 101114
03:00+15wnw22463 0.0 101014
06:00+15nnw11530 0.0 101111
09:00+23sse12270 0.0 1010464
12:00+29wsw14160 0.0 10091621
15:00+30nw55185 0.0 10081297
18:00+26nw4525100 0.0 1008514
21:00+22nw222995 0.0 100915
17 may, mon
mon1700:00+20nnw11290 0.0 100811
03:00+20nw222931 0.0 100813
06:00+18nnw22455 0.0 100911
09:00+24ssw12308 0.0 1011765
12:00+28w452681 0.0 10111589
15:00+28wnw77285 0.0 10101138
18:00+24nw45364 0.0 1010622
21:00+17nw44670 0.0 101259
18 may, tue
tue1800:00+16nw227269 0.0 101324
03:00+15nw22805 0.0 101217
06:00+15nnw11824 0.0 101311
09:00+21se11480 0.0 1014465
12:00+28sse22270 0.0 10131190
15:00+31ssw02260 0.0 10111501
18:00+27n22390 0.0 1011570
21:00+21nnw22570 0.0 101328
19 may, wed
wed1900:00+19n11570 0.0 101311
03:00+18wnw11580 0.0 101211
06:00+17s01620 0.0 101211
09:00+26sse21360 0.0 1012348
12:00+32s43200 0.0 10111088
15:00+35sw23190 0.0 10091574
18:00+30nnw44360 0.0 1009340
21:00+24nw33390 0.0 101034